Simultaneous Nadir Overpasses (SNOs) Predictions

Prediction of SNOs between AQUA and NPP Satellite Orbit:

Table of predicted SNOs for the next 14.0 days since TLE Epoch: 1/13/2024
Index Date (AQUA) Time (AQUA) Lat,Lon (AQUA) SZA (AQUA ) Date (NPP) Time (NPP) Lat,Lon (NPP) SZA (NPP ) Distance(km) Time Diff (sec)
1 01/13/2024 12:02:28 81.06, -83.14 110.41 01/13/2024 12:02:14 81.06, -83.22 110.43 1.37 14
2 01/13/2024 12:51:50 -81.09, 85.03 69.68 01/13/2024 12:52:57 -81.09, 84.97 69.71 1.13 67
3 01/16/2024 00:57:03 81.05, 83.22 110.00 01/16/2024 00:56:10 81.05, 83.11 110.05 1.93 53
4 01/16/2024 01:46:25 -81.09,-108.60 70.09 01/16/2024 01:46:53 -81.08,-108.68 70.10 1.45 28
5 01/18/2024 14:41:00 -81.08, 57.64 70.53 01/18/2024 14:40:50 -81.07, 57.60 70.52 0.82 10
6 01/18/2024 15:30:22 81.10,-134.37 109.42 01/18/2024 15:31:33 81.09,-134.53 109.40 2.80 71
7 01/21/2024 03:35:34 -81.06,-136.23 70.99 01/21/2024 03:34:47 -81.06,-136.18 70.97 0.86 47
8 01/21/2024 04:24:55 81.10, 32.10 108.91 01/21/2024 04:25:29 81.10, 32.04 108.89 1.28 34
9 01/23/2024 17:19:28 81.08,-161.91 108.42 01/23/2024 17:19:26 81.08,-161.83 108.41 1.56 2
10 01/26/2024 06:13:59 81.06, 4.32 107.86 01/26/2024 06:13:23 81.07, 4.24 107.89 1.48 36



Historial Predications of SNOs between AQUA and NPP
